星链-3255 (STARLINK-3255 )

导读 | 豆包AI

STARLINK-3255是美国SpaceX公司星链项目的低轨通信卫星,于2021年12月18日发射入轨,属于星链V1.5批次卫星。星链旨在为全球提供覆盖广泛的高速宽带互联网服务,该卫星搭载激光星间链路,采用氪工质霍尔推进器,具备自主避撞能力,设计寿命5-7年,退役后将主动离轨在大气层焚毁,助力星链低轨通信星座的全球组网布局。

基本信息
目录编号:
50201
目录名称:
STARLINK-3255
国际标识:
2021-125AX
轨道中心:
EARTH
卫星名称:
星链-3255
卫星全名:
星链-3255 (STARLINK-3255 )
卫星状态:
在轨 (已飞行1547 天)
发射日期:
2021-12-18 UTC
国别 :
美国 (US)
星等 :
--
轨道信息
数据来源 国际轨道数据
星历时间: 2026-03-14T14:41:44+0800
13小时前
查看轨道信息
半长轴: 6710.828km
偏心率: 0.0004804
轨道倾角: 53.196°
近地点辐角 36.089°
升交点赤经 118.023°
平近点角 324.046°
近地点: 329.467km
远地点: 335.915km
周期: 91.185分钟
每日圈数: 15.792056
详细信息
固有亮度:
5
最大亮度:
2.5
卫星平台:
Starlink v1.5
覆盖范围:
全球
运营商:
太空探索技术公司
运营商所在国:
美国
制造商(研发单位):
太空探索技术公司
制造商所在国:
美国
使用方式:
暂无
卫星简介
星链(Starlink)计划是由太空探索技术公司(SpaceX)提出的一个巨型低轨卫星互联网星座项目,计划在2019年至2024年间在太空搭建由约1.2万颗卫星组成的“星链”网络,其中1584颗将部署在地球上空550千米处的近地轨道,并从2020年开始工作。该卫星仍在工作。
2D轨道图
3D轨道图
轨道高度分析图
轨道倾角分析图
轨道综合分析图
查看轨道综合分析图